Time,TemperatureF,DewpointF,PressureIn,WindDirection,WindDirectionDegrees,WindSpeedMPH,WindSpeedGustMPH,Humidity,HourlyPrecipIn,Conditions,Clouds,dailyrainin,SolarRadiationWatts/m^2,SoftwareType,DateUTC
2013-07-11 00:00:00,81.1,80.2,30.07,SE,128,5.0,7.0,97,0.00,,,0.01,0.0,meteohub,2013-07-11 04:00:00,
2013-07-11 00:01:00,81.1,80.2,30.07,SE,124,3.0,7.0,97,0.00,,,0.01,0.0,meteohub,2013-07-11 04:01:00,
2013-07-11 00:02:00,81.1,80.2,30.07,SE,126,0.0,7.0,97,0.00,,,0.01,0.0,meteohub,2013-07-11 04:02:00,
2013-07-11 00:07:00,81.1,80.2,30.07,ESE,120,0.0,7.0,97,0.00,,,0.00,0.0,meteohub,2013-07-11 04:07:00,
2013-07-11 00:12:00,81.1,80.2,30.06,ESE,123,0.0,7.0,97,0.00,,,0.00,0.0,meteohub,2013-07-11 04:12:00,
2013-07-11 00:17:00,81.1,80.6,30.06,SE,124,0.0,6.0,98,0.00,,,0.00,0.0,meteohub,2013-07-11 04:17:00,
2013-07-11 00:22:00,81.0,80.4,30.06,SE,136,0.0,0.0,98,0.00,,,0.00,0.0,meteohub,2013-07-11 04:22:00,
2013-07-11 00:27:00,81.0,80.4,30.06,SE,136,0.0,0.0,98,0.00,,,0.00,0.0,meteohub,2013-07-11 04:27:00,
2013-07-11 00:32:00,80.8,80.2,30.06,SE,138,0.0,0.0,98,0.00,,,0.00,0.0,meteohub,2013-07-11 04:32:00,
2013-07-11 00:37:00,80.8,80.2,30.06,SE,128,0.0,0.0,98,0.00,,,0.00,0.0,meteohub,2013-07-11 04:37:00,
2013-07-11 00:42:00,80.4,79.9,30.06,SE,138,0.0,5.0,98,0.00,,,0.00,0.0,meteohub,2013-07-11 04:42:00,
2013-07-11 00:47:00,80.2,79.9,30.06,SE,141,0.0,5.0,99,0.00,,,0.00,0.0,meteohub,2013-07-11 04:47:00,
2013-07-11 00:52:00,80.1,79.7,30.06,SE,143,0.0,5.0,99,0.00,,,0.00,0.0,meteohub,2013-07-11 04:52:00,
2013-07-11 00:57:00,80.1,79.7,30.06,SE,143,0.0,6.0,99,0.00,,,0.00,0.0,meteohub,2013-07-11 04:57:00,
2013-07-11 01:02:00,79.9,79.5,30.06,SE,144,0.0,6.0,99,0.00,,,0.00,0.0,meteohub,2013-07-11 05:02:00,
2013-07-11 01:07:00,80.1,79.7,30.06,SE,144,0.0,0.0,99,0.00,,,0.00,0.0,meteohub,2013-07-11 05:07:00,
2013-07-11 01:12:00,79.9,79.5,30.05,SE,145,0.0,0.0,99,0.00,,,0.00,0.0,meteohub,2013-07-11 05:12:00,
2013-07-11 01:17:00,79.9,79.5,30.05,SE,145,0.0,0.0,99,0.00,,,0.00,0.0,meteohub,2013-07-11 05:17:00,
2013-07-11 01:22:00,79.9,79.5,30.05,SE,145,0.0,0.0,99,0.00,,,0.00,0.0,meteohub,2013-07-11 05:22:00,
2013-07-11 01:27:00,79.9,79.5,30.05,SE,144,0.0,0.0,99,0.00,,,0.00,0.0,meteohub,2013-07-11 05:27:00,
2013-07-11 01:32:00,79.9,79.5,30.05,SE,145,0.0,0.0,99,0.00,,,0.00,0.0,meteohub,2013-07-11 05:32:00,
2013-07-11 01:38:00,79.9,79.5,30.05,SE,145,0.0,0.0,99,0.00,,,0.00,0.0,meteohub,2013-07-11 05:38:00,
2013-07-11 01:43:00,79.9,79.5,30.04,SSE,147,0.0,0.0,99,0.00,,,0.00,0.0,meteohub,2013-07-11 05:43:00,
2013-07-11 01:48:00,79.9,79.5,30.04,SE,145,0.0,0.0,99,0.00,,,0.00,0.0,meteohub,2013-07-11 05:48:00,
2013-07-11 01:53:00,79.9,79.3,30.04,SE,145,0.0,0.0,98,0.00,,,0.00,0.0,meteohub,2013-07-11 05:53:00,
2013-07-11 01:58:00,79.9,79.5,30.04,SSE,147,0.0,0.0,99,0.00,,,0.00,0.0,meteohub,2013-07-11 05:58:00,
2013-07-11 02:03:00,79.5,79.2,30.04,SE,144,0.0,0.0,99,0.00,,,0.00,0.0,meteohub,2013-07-11 06:03:00,
2013-07-11 02:08:00,79.5,79.2,30.04,SE,145,0.0,0.0,99,0.00,,,0.00,0.0,meteohub,2013-07-11 06:08:00,
2013-07-11 02:13:00,79.3,79.0,30.04,SE,145,0.0,0.0,99,0.00,,,0.00,0.0,meteohub,2013-07-11 06:13:00,
2013-07-11 02:18:00,79.2,78.8,30.04,SE,144,0.0,0.0,99,0.00,,,0.00,0.0,meteohub,2013-07-11 06:18:00,
2013-07-11 02:23:00,79.0,79.0,30.04,SE,145,0.0,0.0,100,0.00,,,0.00,0.0,meteohub,2013-07-11 06:23:00,
2013-07-11 02:28:00,79.0,79.0,30.04,SSE,147,0.0,0.0,100,0.00,,,0.00,0.0,meteohub,2013-07-11 06:28:00,
2013-07-11 02:33:00,79.0,79.0,30.04,SE,144,0.0,0.0,100,0.00,,,0.00,0.0,meteohub,2013-07-11 06:33:00,
2013-07-11 02:38:00,79.0,79.0,30.04,SE,144,0.0,0.0,100,0.00,,,0.00,0.0,meteohub,2013-07-11 06:38:00,
2013-07-11 02:43:00,79.0,79.0,30.04,SE,144,0.0,0.0,100,0.00,,,0.00,0.0,meteohub,2013-07-11 06:43:00,
2013-07-11 02:49:00,79.0,79.0,30.04,SE,144,0.0,0.0,100,0.00,,,0.00,0.0,meteohub,2013-07-11 06:49:00,
2013-07-11 02:54:00,79.0,79.0,30.04,SSE,147,0.0,0.0,100,0.00,,,0.00,0.0,meteohub,2013-07-11 06:54:00,
2013-07-11 02:59:00,78.8,78.8,30.04,SSE,147,0.0,0.0,100,0.00,,,0.00,0.0,meteohub,2013-07-11 06:59:00,
2013-07-11 03:04:00,78.8,78.8,30.04,SE,145,0.0,0.0,100,0.00,,,0.00,0.0,meteohub,2013-07-11 07:04:00,
2013-07-11 03:09:00,78.6,78.6,30.04,SE,145,0.0,0.0,100,0.00,,,0.00,0.0,meteohub,2013-07-11 07:09:00,
2013-07-11 03:14:00,78.6,78.6,30.03,SE,145,0.0,0.0,100,0.00,,,0.00,0.0,meteohub,2013-07-11 07:14:00,
2013-07-11 03:19:00,78.4,78.4,30.03,SE,145,0.0,0.0,100,0.00,,,0.00,0.0,meteohub,2013-07-11 07:19:00,
2013-07-11 03:24:00,78.4,78.4,30.03,SE,145,0.0,0.0,100,0.00,,,0.00,0.0,meteohub,2013-07-11 07:24:00,
2013-07-11 03:29:00,78.4,78.4,30.03,SE,144,0.0,0.0,100,0.00,,,0.00,0.0,meteohub,2013-07-11 07:29:00,
2013-07-11 03:34:00,78.3,78.3,30.03,SE,145,0.0,0.0,100,0.00,,,0.00,0.0,meteohub,2013-07-11 07:34:00,
2013-07-11 03:39:00,78.3,78.3,30.03,SE,144,0.0,0.0,100,0.00,,,0.00,0.0,meteohub,2013-07-11 07:39:00,
2013-07-11 03:44:00,78.3,78.3,30.03,SE,144,0.0,0.0,100,0.00,,,0.00,0.0,meteohub,2013-07-11 07:44:00,
2013-07-11 03:49:00,78.3,78.3,30.03,SE,144,0.0,0.0,100,0.00,,,0.00,0.0,meteohub,2013-07-11 07:49:00,
2013-07-11 03:54:00,78.3,78.3,30.03,SE,145,0.0,0.0,100,0.00,,,0.00,0.0,meteohub,2013-07-11 07:54:00,
2013-07-11 03:59:00,78.3,78.3,30.03,SE,145,0.0,0.0,100,0.00,,,0.00,0.0,meteohub,2013-07-11 07:59:00,
2013-07-11 04:04:00,78.3,78.3,30.03,SE,144,0.0,0.0,100,0.00,,,0.00,0.0,meteohub,2013-07-11 08:04:00,
2013-07-11 04:09:00,78.3,78.3,30.03,SE,145,0.0,0.0,100,0.00,,,0.00,0.0,meteohub,2013-07-11 08:09:00,
2013-07-11 04:14:00,78.1,78.1,30.03,SE,145,0.0,0.0,100,0.00,,,0.00,0.0,meteohub,2013-07-11 08:14:00,
2013-07-11 04:19:00,78.1,78.1,30.03,SE,144,0.0,0.0,100,0.00,,,0.00,0.0,meteohub,2013-07-11 08:19:00,
2013-07-11 04:24:00,78.1,78.1,30.03,SE,144,0.0,0.0,100,0.00,,,0.00,0.0,meteohub,2013-07-11 08:24:00,
2013-07-11 04:30:00,77.9,77.9,30.04,SSE,147,0.0,0.0,100,0.00,,,0.00,0.0,meteohub,2013-07-11 08:30:00,
2013-07-11 04:35:00,77.9,77.9,30.04,SE,145,0.0,0.0,100,0.00,,,0.00,0.0,meteohub,2013-07-11 08:35:00,
2013-07-11 04:40:00,77.9,77.9,30.04,SE,144,0.0,0.0,100,0.00,,,0.00,0.0,meteohub,2013-07-11 08:40:00,
2013-07-11 04:45:00,77.9,77.9,30.04,SE,145,0.0,0.0,100,0.00,,,0.00,0.0,meteohub,2013-07-11 08:45:00,
2013-07-11 04:50:00,77.7,77.7,30.04,SE,145,0.0,0.0,100,0.00,,,0.00,0.0,meteohub,2013-07-11 08:50:00,
2013-07-11 04:55:00,77.9,77.9,30.04,SE,144,0.0,0.0,100,0.00,,,0.00,0.0,meteohub,2013-07-11 08:55:00,
2013-07-11 05:06:00,77.9,77.9,30.04,SE,145,0.0,0.0,100,0.00,,,0.00,0.0,meteohub,2013-07-11 09:06:00,
2013-07-11 05:11:00,77.9,77.9,30.04,SE,144,0.0,0.0,100,0.00,,,0.00,0.0,meteohub,2013-07-11 09:11:00,
2013-07-11 05:16:00,77.9,77.9,30.03,SE,144,0.0,0.0,100,0.00,,,0.00,0.0,meteohub,2013-07-11 09:16:00,
2013-07-11 05:21:00,77.7,77.7,30.03,SE,144,0.0,0.0,100,0.00,,,0.00,0.0,meteohub,2013-07-11 09:21:00,
2013-07-11 05:26:00,77.7,77.7,30.03,SE,144,0.0,0.0,100,0.00,,,0.00,0.0,meteohub,2013-07-11 09:26:00,
2013-07-11 05:32:00,77.7,77.7,30.04,SE,145,0.0,0.0,100,0.00,,,0.00,0.0,meteohub,2013-07-11 09:32:00,
2013-07-11 05:37:00,77.5,77.5,30.04,SE,144,0.0,0.0,100,0.00,,,0.00,0.0,meteohub,2013-07-11 09:37:00,
2013-07-11 05:42:00,77.5,77.5,30.04,SE,145,0.0,0.0,100,0.00,,,0.00,0.0,meteohub,2013-07-11 09:42:00,
2013-07-11 05:47:00,77.4,77.4,30.04,SE,144,0.0,0.0,100,0.00,,,0.00,0.0,meteohub,2013-07-11 09:47:00,
2013-07-11 05:52:00,77.4,77.4,30.04,SE,145,0.0,0.0,100,0.00,,,0.00,0.0,meteohub,2013-07-11 09:52:00,
2013-07-11 05:57:00,77.4,77.4,30.04,SE,145,0.0,0.0,100,0.00,,,0.00,0.0,meteohub,2013-07-11 09:57:00,
2013-07-11 06:02:00,77.4,77.4,30.04,SE,144,0.0,0.0,100,0.00,,,0.00,5.0,meteohub,2013-07-11 10:02:00,
2013-07-11 06:07:00,77.5,77.5,30.04,SE,144,0.0,0.0,100,0.00,,,0.00,9.0,meteohub,2013-07-11 10:07:00,
2013-07-11 06:12:00,77.7,77.7,30.04,SE,144,0.0,3.0,100,0.00,,,0.00,14.0,meteohub,2013-07-11 10:12:00,
2013-07-11 06:17:00,77.7,77.7,30.04,SE,145,0.0,3.0,100,0.00,,,0.00,19.0,meteohub,2013-07-11 10:17:00,
2013-07-11 06:22:00,77.7,77.7,30.04,SE,145,0.0,3.0,100,0.00,,,0.00,32.0,meteohub,2013-07-11 10:22:00,
2013-07-11 06:27:00,77.7,77.7,30.04,SE,145,0.0,0.0,100,0.00,,,0.00,39.0,meteohub,2013-07-11 10:27:00,
2013-07-11 06:32:00,77.9,77.9,30.05,SE,145,0.0,0.0,100,0.00,,,0.00,48.0,meteohub,2013-07-11 10:32:00,
2013-07-11 06:37:00,77.9,77.9,30.05,SSE,147,0.0,0.0,100,0.00,,,0.00,65.0,meteohub,2013-07-11 10:37:00,
2013-07-11 06:42:00,78.1,78.1,30.05,SE,145,0.0,0.0,100,0.00,,,0.00,76.0,meteohub,2013-07-11 10:42:00,
2013-07-11 06:47:00,78.1,78.1,30.06,SE,145,0.0,0.0,100,0.00,,,0.00,88.0,meteohub,2013-07-11 10:47:00,
2013-07-11 06:52:00,78.3,78.3,30.06,SSE,147,0.0,0.0,100,0.00,,,0.00,102.0,meteohub,2013-07-11 10:52:00,
2013-07-11 06:57:00,78.4,78.4,30.06,SSE,147,0.0,0.0,100,0.00,,,0.00,116.0,meteohub,2013-07-11 10:57:00,
2013-07-11 07:02:00,78.8,78.8,30.06,SE,145,0.0,0.0,100,0.00,,,0.00,132.0,meteohub,2013-07-11 11:02:00,
2013-07-11 07:07:00,79.2,79.2,30.06,SE,145,0.0,0.0,100,0.00,,,0.00,148.0,meteohub,2013-07-11 11:07:00,
2013-07-11 07:12:00,79.5,79.2,30.06,SSE,147,0.0,0.0,99,0.00,,,0.00,162.0,meteohub,2013-07-11 11:12:00,
2013-07-11 07:17:00,79.9,79.3,30.06,SE,145,0.0,0.0,98,0.00,,,0.00,178.0,meteohub,2013-07-11 11:17:00,
2013-07-11 07:22:00,80.2,79.3,30.06,SE,144,0.0,0.0,97,0.00,,,0.00,194.0,meteohub,2013-07-11 11:22:00,
2013-07-11 07:27:00,80.4,79.5,30.07,SE,144,0.0,0.0,97,0.00,,,0.00,213.0,meteohub,2013-07-11 11:27:00,
2013-07-11 07:32:00,81.0,79.7,30.07,SE,143,0.0,3.0,96,0.00,,,0.00,230.0,meteohub,2013-07-11 11:32:00,
2013-07-11 07:37:00,81.1,79.9,30.07,SE,143,0.0,3.0,96,0.00,,,0.00,246.0,meteohub,2013-07-11 11:37:00,
2013-07-11 07:42:00,81.3,79.7,30.07,ESE,120,0.0,0.0,95,0.00,,,0.00,266.0,meteohub,2013-07-11 11:42:00,
2013-07-11 07:47:00,81.7,79.7,30.07,ESE,102,0.0,6.0,94,0.00,,,0.00,283.0,meteohub,2013-07-11 11:47:00,
2013-07-11 07:52:00,81.9,79.9,30.07,ESE,107,0.0,6.0,94,0.00,,,0.00,304.0,meteohub,2013-07-11 11:52:00,
2013-07-11 07:57:00,82.0,79.9,30.07,ESE,123,2.0,6.0,93,0.00,,,0.00,320.0,meteohub,2013-07-11 11:57:00,
2013-07-11 08:03:00,82.0,79.5,30.07,ESE,123,0.0,6.0,92,0.00,,,0.00,338.0,meteohub,2013-07-11 12:03:00,
2013-07-11 08:08:00,82.4,79.9,30.07,SE,130,0.0,7.0,92,0.00,,,0.00,355.0,meteohub,2013-07-11 12:08:00,
2013-07-11 08:13:00,82.8,80.2,30.07,SE,130,0.0,7.0,92,0.00,,,0.00,375.0,meteohub,2013-07-11 12:13:00,
2013-07-11 08:18:00,83.1,80.2,30.07,SE,145,0.0,7.0,91,0.00,,,0.00,396.0,meteohub,2013-07-11 12:18:00,
2013-07-11 08:23:00,83.7,80.4,30.07,ESE,114,7.0,8.0,90,0.00,,,0.00,415.0,meteohub,2013-07-11 12:23:00,
2013-07-11 08:28:00,83.8,80.6,30.07,East,97,3.0,8.0,90,0.00,,,0.00,238.0,meteohub,2013-07-11 12:28:00,
2013-07-11 08:33:00,83.8,80.6,30.07,SSE,157,6.0,8.0,90,0.00,,,0.00,267.0,meteohub,2013-07-11 12:33:00,
2013-07-11 08:38:00,83.7,80.4,30.07,SE,130,3.0,8.0,90,0.00,,,0.00,243.0,meteohub,2013-07-11 12:38:00,
2013-07-11 08:43:00,83.8,81.0,30.07,SE,144,0.0,8.0,91,0.00,,,0.00,271.0,meteohub,2013-07-11 12:43:00,
2013-07-11 08:48:00,83.8,80.6,30.07,East,86,0.0,10.0,90,0.00,,,0.00,315.0,meteohub,2013-07-11 12:48:00,
2013-07-11 08:53:00,84.0,80.8,30.07,East,93,8.0,11.0,90,0.00,,,0.00,303.0,meteohub,2013-07-11 12:53:00,
2013-07-11 08:58:00,84.0,80.8,30.08,SE,133,5.0,11.0,90,0.00,,,0.00,482.0,meteohub,2013-07-11 12:58:00,
2013-07-11 09:03:00,84.7,81.1,30.08,SE,130,0.0,11.0,89,0.00,,,0.00,271.0,meteohub,2013-07-11 13:03:00,
2013-07-11 09:08:00,84.6,80.6,30.08,ESE,107,0.0,10.0,88,0.00,,,0.00,250.0,meteohub,2013-07-11 13:08:00,
2013-07-11 09:13:00,84.7,80.8,30.07,SE,134,5.0,7.0,88,0.00,,,0.00,317.0,meteohub,2013-07-11 13:13:00,
2013-07-11 09:18:00,84.9,81.0,30.07,SE,124,3.0,10.0,88,0.00,,,0.00,304.0,meteohub,2013-07-11 13:18:00,
2013-07-11 09:23:00,85.1,81.1,30.07,SE,128,0.0,10.0,88,0.00,,,0.00,755.0,meteohub,2013-07-11 13:23:00,
2013-07-11 09:28:00,85.5,81.1,30.07,East,97,0.0,8.0,87,0.00,,,0.00,730.0,meteohub,2013-07-11 13:28:00,
2013-07-11 09:33:00,85.8,80.8,30.07,East,86,3.0,11.0,85,0.00,,,0.00,704.0,meteohub,2013-07-11 13:33:00,
2013-07-11 09:39:00,86.5,80.8,30.07,East,95,0.0,11.0,83,0.00,,,0.00,797.0,meteohub,2013-07-11 13:39:00,
2013-07-11 09:44:00,86.7,80.2,30.08,ENE,66,1.0,11.0,81,0.00,,,0.00,781.0,meteohub,2013-07-11 13:44:00,
2013-07-11 09:49:00,87.1,80.6,30.08,East,80,9.0,12.0,81,0.00,,,0.00,431.0,meteohub,2013-07-11 13:49:00,
2013-07-11 09:54:00,86.5,80.1,30.08,East,89,1.0,12.0,81,0.00,,,0.00,324.0,meteohub,2013-07-11 13:54:00,
2013-07-11 10:00:00,87.3,80.8,30.08,ENE,61,1.0,12.0,81,0.00,,,0.00,809.0,meteohub,2013-07-11 14:00:00,
2013-07-11 10:05:00,87.6,80.6,30.08,ESE,106,10.0,10.0,80,0.00,,,0.00,811.0,meteohub,2013-07-11 14:05:00,
2013-07-11 10:10:00,88.2,80.4,30.08,SSE,147,7.0,11.0,78,0.00,,,0.00,827.0,meteohub,2013-07-11 14:10:00,
2013-07-11 10:15:00,88.5,81.1,30.08,ENE,58,3.0,11.0,79,0.00,,,0.00,841.0,meteohub,2013-07-11 14:15:00,
2013-07-11 10:21:00,88.5,80.8,30.08,ENE,64,6.0,13.0,78,0.00,,,0.00,827.0,meteohub,2013-07-11 14:21:00,
2013-07-11 10:26:00,88.9,81.5,30.08,ENE,59,7.0,13.0,79,0.00,,,0.00,843.0,meteohub,2013-07-11 14:26:00,
2013-07-11 10:31:00,89.2,81.5,30.08,ESE,121,1.0,11.0,78,0.00,,,0.00,730.0,meteohub,2013-07-11 14:31:00,
2013-07-11 10:36:00,89.4,81.3,30.08,East,85,5.0,10.0,77,0.00,,,0.00,857.0,meteohub,2013-07-11 14:36:00,
2013-07-11 10:41:00,89.1,81.0,30.08,SE,131,5.0,10.0,77,0.00,,,0.00,860.0,meteohub,2013-07-11 14:41:00,
2013-07-11 10:46:00,89.8,82.4,30.08,East,96,7.0,14.0,79,0.00,,,0.00,874.0,meteohub,2013-07-11 14:46:00,
2013-07-11 10:51:00,89.8,82.4,30.08,NE,40,0.0,14.0,79,0.00,,,0.00,903.0,meteohub,2013-07-11 14:51:00,
2013-07-11 10:56:00,89.8,82.8,30.08,East,79,6.0,16.0,80,0.00,,,0.00,954.0,meteohub,2013-07-11 14:56:00,
2013-07-11 11:02:00,89.4,81.7,30.08,ENE,59,2.0,16.0,78,0.00,,,0.00,450.0,meteohub,2013-07-11 15:02:00,
2013-07-11 11:07:00,89.2,82.2,30.08,NE,37,10.0,13.0,80,0.00,,,0.00,296.0,meteohub,2013-07-11 15:07:00,
2013-07-11 11:12:00,88.5,81.5,30.08,East,80,5.0,13.0,80,0.00,,,0.00,959.0,meteohub,2013-07-11 15:12:00,
2013-07-11 11:17:00,89.1,82.4,30.08,ENE,76,6.0,13.0,81,0.00,,,0.00,450.0,meteohub,2013-07-11 15:17:00,
2013-07-11 11:22:00,88.5,81.9,30.08,ENE,72,6.0,13.0,81,0.00,,,0.00,384.0,meteohub,2013-07-11 15:22:00,
2013-07-11 11:27:00,88.2,82.0,30.08,NE,35,13.0,14.0,82,0.00,,,0.00,406.0,meteohub,2013-07-11 15:27:00,
2013-07-11 11:32:00,88.0,81.9,30.08,ENE,73,1.0,16.0,82,0.00,,,0.00,413.0,meteohub,2013-07-11 15:32:00,
2013-07-11 11:38:00,88.2,82.0,30.08,NE,45,11.0,16.0,82,0.00,,,0.00,348.0,meteohub,2013-07-11 15:38:00,
2013-07-11 11:43:00,88.5,82.4,30.07,NE,52,3.0,14.0,82,0.00,,,0.00,1024.0,meteohub,2013-07-11 15:43:00,
2013-07-11 11:48:00,89.1,82.0,30.07,ENE,65,5.0,14.0,80,0.00,,,0.00,994.0,meteohub,2013-07-11 15:48:00,
2013-07-11 11:53:00,89.4,82.4,30.07,ENE,65,3.0,14.0,80,0.00,,,0.00,1045.0,meteohub,2013-07-11 15:53:00,
2013-07-11 11:59:00,89.8,82.8,30.07,NE,45,3.0,14.0,80,0.00,,,0.00,1045.0,meteohub,2013-07-11 15:59:00,
2013-07-11 12:04:00,89.4,82.4,30.07,NE,48,8.0,13.0,80,0.00,,,0.00,406.0,meteohub,2013-07-11 16:04:00,
2013-07-11 12:09:00,88.9,82.2,30.07,ESE,109,5.0,14.0,81,0.00,,,0.00,457.0,meteohub,2013-07-11 16:09:00,
2013-07-11 12:15:00,88.5,81.5,30.06,ENE,76,7.0,17.0,80,0.00,,,0.00,385.0,meteohub,2013-07-11 16:15:00,
2013-07-11 12:20:00,88.9,81.9,30.06,NNE,30,10.0,17.0,80,0.00,,,0.00,452.0,meteohub,2013-07-11 16:20:00,
2013-07-11 12:25:00,88.9,81.9,30.06,NE,38,9.0,17.0,80,0.00,,,0.00,470.0,meteohub,2013-07-11 16:25:00,
2013-07-11 12:30:00,89.1,81.7,30.06,ENE,64,10.0,17.0,79,0.00,,,0.00,751.0,meteohub,2013-07-11 16:30:00,
2013-07-11 12:36:00,89.2,81.9,30.06,ENE,71,10.0,17.0,79,0.00,,,0.00,1031.0,meteohub,2013-07-11 16:36:00,
2013-07-11 12:41:00,89.4,81.7,30.06,NE,47,9.0,17.0,78,0.00,,,0.00,1031.0,meteohub,2013-07-11 16:41:00,
2013-07-11 12:47:00,89.4,81.7,30.05,NE,55,9.0,17.0,78,0.00,,,0.00,1019.0,meteohub,2013-07-11 16:47:00,
2013-07-11 12:52:00,89.2,81.5,30.05,NE,51,7.0,17.0,78,0.00,,,0.00,389.0,meteohub,2013-07-11 16:52:00,
2013-07-11 12:57:00,89.4,81.7,30.05,ENE,68,7.0,17.0,78,0.00,,,0.00,1059.0,meteohub,2013-07-11 16:57:00,
2013-07-11 13:03:00,89.8,81.7,30.05,ESE,114,8.0,17.0,77,0.00,,,0.00,364.0,meteohub,2013-07-11 17:03:00,
2013-07-11 13:07:00,90.1,81.9,30.05,ENE,78,7.0,17.0,77,0.00,,,0.00,994.0,meteohub,2013-07-11 17:07:00,
2013-07-11 13:13:00,90.3,81.7,30.05,East,83,12.0,17.0,76,0.00,,,0.00,994.0,meteohub,2013-07-11 17:13:00,
2013-07-11 13:18:00,90.1,81.9,30.05,NE,52,9.0,17.0,77,0.00,,,0.00,496.0,meteohub,2013-07-11 17:18:00,
2013-07-11 13:23:00,90.5,81.5,30.05,NE,37,12.0,17.0,75,0.00,,,0.00,901.0,meteohub,2013-07-11 17:23:00,
2013-07-11 13:28:00,90.7,81.7,30.05,NE,42,10.0,16.0,75,0.00,,,0.00,887.0,meteohub,2013-07-11 17:28:00,
2013-07-11 13:33:00,90.5,81.1,30.05,East,97,7.0,16.0,74,0.00,,,0.00,876.0,meteohub,2013-07-11 17:33:00,
2013-07-11 13:38:00,90.3,81.7,30.05,ESE,103,9.0,16.0,76,0.00,,,0.00,871.0,meteohub,2013-07-11 17:38:00,
2013-07-11 13:43:00,90.1,81.9,30.04,NE,42,7.0,16.0,77,0.00,,,0.00,869.0,meteohub,2013-07-11 17:43:00,
2013-07-11 13:48:00,90.5,81.9,30.04,NE,47,9.0,16.0,76,0.00,,,0.00,862.0,meteohub,2013-07-11 17:48:00,
2013-07-11 13:53:00,90.3,81.7,30.04,NE,54,8.0,16.0,76,0.00,,,0.00,852.0,meteohub,2013-07-11 17:53:00,
2013-07-11 13:59:00,90.1,81.9,30.04,ENE,72,2.0,20.0,77,0.00,,,0.00,860.0,meteohub,2013-07-11 17:59:00,
2013-07-11 14:04:00,90.1,81.9,30.04,East,99,9.0,20.0,77,0.00,,,0.00,867.0,meteohub,2013-07-11 18:04:00,
2013-07-11 14:09:00,90.0,82.2,30.04,ENE,75,10.0,20.0,78,0.00,,,0.00,885.0,meteohub,2013-07-11 18:09:00,
2013-07-11 14:14:00,90.0,82.6,30.04,ENE,76,8.0,16.0,79,0.00,,,0.00,841.0,meteohub,2013-07-11 18:14:00,
2013-07-11 14:20:00,89.8,82.4,30.04,ENE,62,13.0,16.0,79,0.00,,,0.00,836.0,meteohub,2013-07-11 18:20:00,
2013-07-11 14:25:00,89.4,82.4,30.04,East,86,2.0,16.0,80,0.00,,,0.00,829.0,meteohub,2013-07-11 18:25:00,
2013-07-11 14:30:00,89.2,82.2,30.04,ENE,62,9.0,16.0,80,0.00,,,0.00,829.0,meteohub,2013-07-11 18:30:00,
2013-07-11 14:35:00,90.0,82.9,30.04,East,79,7.0,16.0,80,0.00,,,0.00,811.0,meteohub,2013-07-11 18:35:00,
2013-07-11 14:40:00,89.8,82.8,30.04,ENE,72,8.0,16.0,80,0.00,,,0.00,818.0,meteohub,2013-07-11 18:40:00,
2013-07-11 14:45:00,90.0,82.6,30.03,East,99,6.0,14.0,79,0.00,,,0.00,760.0,meteohub,2013-07-11 18:45:00,
2013-07-11 14:50:00,90.0,82.9,30.03,ENE,69,10.0,15.0,80,0.00,,,0.00,748.0,meteohub,2013-07-11 18:50:00,
2013-07-11 14:55:00,90.0,82.6,30.03,ENE,58,5.0,15.0,79,0.00,,,0.00,748.0,meteohub,2013-07-11 18:55:00,
2013-07-11 15:00:00,90.0,82.6,30.02,ESE,123,6.0,17.0,79,0.00,,,0.00,728.0,meteohub,2013-07-11 19:00:00,
2013-07-11 15:06:00,89.8,82.0,30.02,East,89,8.0,16.0,78,0.00,,,0.00,723.0,meteohub,2013-07-11 19:06:00,
2013-07-11 15:11:00,89.4,81.7,30.02,NE,54,10.0,16.0,78,0.00,,,0.00,704.0,meteohub,2013-07-11 19:11:00,
2013-07-11 15:16:00,89.4,82.4,30.02,ENE,65,10.0,14.0,80,0.00,,,0.00,725.0,meteohub,2013-07-11 19:16:00,
2013-07-11 15:21:00,89.8,82.8,30.02,ENE,66,11.0,14.0,80,0.00,,,0.00,706.0,meteohub,2013-07-11 19:21:00,
2013-07-11 15:26:00,89.8,83.1,30.02,NE,54,5.0,16.0,81,0.00,,,0.00,709.0,meteohub,2013-07-11 19:26:00,
2013-07-11 15:32:00,89.1,81.7,30.01,ENE,76,11.0,17.0,79,0.00,,,0.00,357.0,meteohub,2013-07-11 19:32:00,
2013-07-11 15:37:00,88.9,81.9,30.01,ENE,75,2.0,17.0,80,0.00,,,0.00,482.0,meteohub,2013-07-11 19:37:00,
2013-07-11 15:42:00,89.1,82.0,30.01,East,82,10.0,17.0,80,0.00,,,0.00,413.0,meteohub,2013-07-11 19:42:00,
2013-07-11 15:47:00,89.1,82.0,30.01,ENE,64,6.0,17.0,80,0.00,,,0.00,472.0,meteohub,2013-07-11 19:47:00,
2013-07-11 15:52:00,89.1,82.0,30.01,East,82,11.0,17.0,80,0.00,,,0.00,625.0,meteohub,2013-07-11 19:52:00,
2013-07-11 15:58:00,88.9,81.9,30.01,ENE,68,7.0,17.0,80,0.00,,,0.00,595.0,meteohub,2013-07-11 19:58:00,
2013-07-11 16:03:00,89.1,82.0,30.01,ENE,75,7.0,14.0,80,0.00,,,0.00,611.0,meteohub,2013-07-11 20:03:00,
2013-07-11 16:08:00,89.1,82.4,30.01,ENE,78,11.0,14.0,81,0.00,,,0.00,589.0,meteohub,2013-07-11 20:08:00,
2013-07-11 16:13:00,88.9,81.9,30.00,SE,124,7.0,16.0,80,0.00,,,0.00,526.0,meteohub,2013-07-11 20:13:00,
2013-07-11 16:18:00,89.1,81.3,30.00,East,79,10.0,17.0,78,0.00,,,0.00,456.0,meteohub,2013-07-11 20:18:00,
2013-07-11 16:23:00,89.1,82.0,30.00,ENE,71,14.0,17.0,80,0.00,,,0.00,461.0,meteohub,2013-07-11 20:23:00,
2013-07-11 16:29:00,88.9,82.2,30.00,East,92,8.0,17.0,81,0.00,,,0.00,477.0,meteohub,2013-07-11 20:29:00,
2013-07-11 16:34:00,88.3,81.3,30.00,ESE,102,12.0,16.0,80,0.00,,,0.00,187.0,meteohub,2013-07-11 20:34:00,
2013-07-11 16:39:00,88.0,81.3,30.00,ENE,69,10.0,16.0,81,0.00,,,0.00,419.0,meteohub,2013-07-11 20:39:00,
2013-07-11 16:44:00,88.0,81.9,30.01,East,85,8.0,16.0,82,0.00,,,0.00,190.0,meteohub,2013-07-11 20:44:00,
2013-07-11 16:49:00,87.8,82.0,30.01,NE,37,7.0,14.0,83,0.00,,,0.00,333.0,meteohub,2013-07-11 20:49:00,
2013-07-11 16:54:00,87.8,82.4,30.01,East,95,0.0,13.0,84,0.00,,,0.00,378.0,meteohub,2013-07-11 20:54:00,
2013-07-11 16:59:00,88.0,82.2,30.00,ENE,72,4.0,13.0,83,0.00,,,0.00,359.0,meteohub,2013-07-11 20:59:00,
2013-07-11 17:04:00,87.8,82.0,30.00,ENE,68,6.0,14.0,83,0.00,,,0.00,333.0,meteohub,2013-07-11 21:04:00,
2013-07-11 17:10:00,88.0,82.6,30.00,East,82,7.0,14.0,84,0.00,,,0.00,310.0,meteohub,2013-07-11 21:10:00,
2013-07-11 17:16:00,87.6,81.9,30.00,East,90,11.0,12.0,83,0.00,,,0.00,280.0,meteohub,2013-07-11 21:16:00,
2013-07-11 17:21:00,87.4,81.7,30.00,NE,52,3.0,16.0,83,0.00,,,0.00,266.0,meteohub,2013-07-11 21:21:00,
2013-07-11 17:26:00,87.1,81.3,30.00,ESE,107,2.0,16.0,83,0.00,,,0.00,143.0,meteohub,2013-07-11 21:26:00,
2013-07-11 17:31:00,86.4,81.0,30.01,ENE,75,3.0,16.0,84,0.00,,,0.00,158.0,meteohub,2013-07-11 21:31:00,
2013-07-11 17:36:00,86.4,81.0,30.01,ENE,61,6.0,16.0,84,0.00,,,0.00,202.0,meteohub,2013-07-11 21:36:00,
2013-07-11 17:41:00,85.8,80.8,30.01,ENE,76,5.0,16.0,85,0.00,,,0.00,188.0,meteohub,2013-07-11 21:41:00,
2013-07-11 17:47:00,86.4,81.3,30.01,ENE,62,6.0,14.0,85,0.00,,,0.00,174.0,meteohub,2013-07-11 21:47:00,
2013-07-11 17:52:00,85.8,80.8,30.01,ENE,72,9.0,13.0,85,0.00,,,0.00,134.0,meteohub,2013-07-11 21:52:00,
2013-07-11 17:57:00,85.5,80.1,30.01,ENE,71,6.0,13.0,84,0.00,,,0.00,97.0,meteohub,2013-07-11 21:57:00,
2013-07-11 18:02:00,85.5,80.8,30.01,East,88,7.0,13.0,86,0.00,,,0.00,109.0,meteohub,2013-07-11 22:02:00,
2013-07-11 18:07:00,85.3,80.6,30.01,ENE,78,0.0,13.0,86,0.00,,,0.00,84.0,meteohub,2013-07-11 22:07:00,
2013-07-11 18:12:00,85.3,80.6,30.01,NE,49,5.0,13.0,86,0.00,,,0.00,77.0,meteohub,2013-07-11 22:12:00,
2013-07-11 18:17:00,85.1,80.4,30.01,ENE,69,3.0,10.0,86,0.00,,,0.00,76.0,meteohub,2013-07-11 22:17:00,
2013-07-11 18:22:00,84.9,80.2,30.01,ESE,110,6.0,10.0,86,0.00,,,0.00,51.0,meteohub,2013-07-11 22:22:00,
2013-07-11 18:28:00,84.9,80.6,30.01,East,88,3.0,10.0,87,0.00,,,0.00,42.0,meteohub,2013-07-11 22:28:00,
2013-07-11 18:33:00,84.7,80.4,30.01,NE,44,5.0,11.0,87,0.00,,,0.00,40.0,meteohub,2013-07-11 22:33:00,
2013-07-11 18:37:00,84.4,80.1,30.01,East,79,10.0,14.0,87,0.00,,,0.00,28.0,meteohub,2013-07-11 22:37:00,
2013-07-11 18:43:00,84.4,80.4,30.02,NE,35,7.0,14.0,88,0.00,,,0.00,23.0,meteohub,2013-07-11 22:43:00,
2013-07-11 18:48:00,84.0,80.1,30.02,ENE,78,0.0,12.0,88,0.00,,,0.00,16.0,meteohub,2013-07-11 22:48:00,
2013-07-11 18:53:00,84.0,80.1,30.02,East,92,0.0,12.0,88,0.00,,,0.00,12.0,meteohub,2013-07-11 22:53:00,
2013-07-11 18:58:00,83.8,79.5,30.02,ENE,72,5.0,12.0,87,0.00,,,0.00,5.0,meteohub,2013-07-11 22:58:00,
2013-07-11 19:03:00,83.8,79.9,30.02,NE,52,7.0,11.0,88,0.00,,,0.00,0.0,meteohub,2013-07-11 23:03:00,
2013-07-11 19:08:00,83.8,79.9,30.02,ENE,59,5.0,11.0,88,0.00,,,0.00,0.0,meteohub,2013-07-11 23:08:00,
2013-07-11 19:13:00,83.7,79.7,30.02,East,88,0.0,11.0,88,0.00,,,0.00,0.0,meteohub,2013-07-11 23:13:00,
2013-07-11 19:18:00,83.7,79.7,30.02,ENE,75,6.0,10.0,88,0.00,,,0.00,0.0,meteohub,2013-07-11 23:18:00,
2013-07-11 19:23:00,83.7,79.7,30.02,ESE,102,7.0,10.0,88,0.00,,,0.00,0.0,meteohub,2013-07-11 23:23:00,
2013-07-11 19:28:00,83.5,79.5,30.02,East,93,5.0,11.0,88,0.00,,,0.00,0.0,meteohub,2013-07-11 23:28:00,
2013-07-11 19:33:00,83.1,79.5,30.02,ESE,113,3.0,11.0,89,0.00,,,0.00,0.0,meteohub,2013-07-11 23:33:00,
2013-07-11 19:38:00,83.1,79.5,30.02,ENE,76,8.0,11.0,89,0.00,,,0.00,0.0,meteohub,2013-07-11 23:38:00,
2013-07-11 19:43:00,83.1,79.5,30.02,East,89,0.0,12.0,89,0.00,,,0.00,0.0,meteohub,2013-07-11 23:43:00,
2013-07-11 19:49:00,83.1,79.9,30.02,East,82,0.0,12.0,90,0.00,,,0.00,0.0,meteohub,2013-07-11 23:49:00,
2013-07-11 19:54:00,82.9,79.7,30.02,East,99,0.0,12.0,90,0.00,,,0.00,0.0,meteohub,2013-07-11 23:54:00,
2013-07-11 19:59:00,82.8,79.5,30.03,ENE,62,11.0,11.0,90,0.00,,,0.00,0.0,meteohub,2013-07-11 23:59:00,
2013-07-11 20:04:00,82.8,79.9,30.03,East,80,8.0,10.0,91,0.00,,,0.00,0.0,meteohub,2013-07-12 00:04:00,
2013-07-11 20:09:00,82.6,79.7,30.03,ESE,110,11.0,12.0,91,0.00,,,0.00,0.0,meteohub,2013-07-12 00:09:00,
2013-07-11 20:15:00,82.4,79.9,30.03,East,86,7.0,12.0,92,0.00,,,0.00,0.0,meteohub,2013-07-12 00:15:00,
2013-07-11 20:20:00,82.4,79.9,30.03,ESE,104,2.0,11.0,92,0.00,,,0.00,0.0,meteohub,2013-07-12 00:20:00,
2013-07-11 20:25:00,82.2,79.7,30.03,NE,38,5.0,12.0,92,0.00,,,0.00,0.0,meteohub,2013-07-12 00:25:00,
2013-07-11 20:30:00,82.4,79.9,30.04,ESE,109,6.0,12.0,92,0.00,,,0.00,0.0,meteohub,2013-07-12 00:30:00,
2013-07-11 20:36:00,82.2,79.7,30.04,East,85,8.0,12.0,92,0.00,,,0.00,0.0,meteohub,2013-07-12 00:36:00,
2013-07-11 20:41:00,82.2,79.7,30.04,East,90,6.0,12.0,92,0.00,,,0.00,0.0,meteohub,2013-07-12 00:41:00,
2013-07-11 20:46:00,82.2,79.7,30.04,ENE,76,0.0,12.0,92,0.00,,,0.00,0.0,meteohub,2013-07-12 00:46:00,
2013-07-11 20:52:00,82.2,79.7,30.04,East,99,0.0,12.0,92,0.00,,,0.00,0.0,meteohub,2013-07-12 00:52:00,
2013-07-11 20:57:00,82.2,79.7,30.04,ENE,66,0.0,11.0,92,0.00,,,0.00,0.0,meteohub,2013-07-12 00:57:00,
2013-07-11 21:02:00,82.0,79.5,30.04,ESE,109,0.0,10.0,92,0.00,,,0.00,0.0,meteohub,2013-07-12 01:02:00,
2013-07-11 21:07:00,82.0,79.5,30.04,ENE,75,0.0,10.0,92,0.00,,,0.00,0.0,meteohub,2013-07-12 01:07:00,
2013-07-11 21:12:00,82.0,79.5,30.04,East,85,0.0,10.0,92,0.00,,,0.00,0.0,meteohub,2013-07-12 01:12:00,
2013-07-11 21:17:00,81.9,79.3,30.04,ENE,64,5.0,8.0,92,0.00,,,0.00,0.0,meteohub,2013-07-12 01:17:00,
2013-07-11 21:22:00,81.9,79.3,30.04,East,89,0.0,8.0,92,0.00,,,0.00,0.0,meteohub,2013-07-12 01:22:00,
2013-07-11 21:27:00,81.9,79.3,30.04,East,80,0.0,8.0,92,0.00,,,0.00,0.0,meteohub,2013-07-12 01:27:00,
2013-07-11 21:32:00,81.9,79.3,30.04,NE,56,3.0,8.0,92,0.00,,,0.00,0.0,meteohub,2013-07-12 01:32:00,
2013-07-11 21:37:00,81.9,79.3,30.04,ENE,59,0.0,8.0,92,0.00,,,0.00,0.0,meteohub,2013-07-12 01:37:00,
2013-07-11 21:42:00,81.9,79.3,30.04,ENE,64,0.0,8.0,92,0.00,,,0.00,0.0,meteohub,2013-07-12 01:42:00,
2013-07-11 21:47:00,81.9,79.3,30.05,ENE,65,0.0,7.0,92,0.00,,,0.00,0.0,meteohub,2013-07-12 01:47:00,
2013-07-11 21:53:00,81.9,79.3,30.05,ENE,72,0.0,3.0,92,0.00,,,0.00,0.0,meteohub,2013-07-12 01:53:00,
2013-07-11 21:58:00,81.7,79.5,30.05,East,79,0.0,6.0,93,0.00,,,0.00,0.0,meteohub,2013-07-12 01:58:00,
2013-07-11 22:03:00,81.7,79.5,30.05,NE,56,0.0,7.0,93,0.00,,,0.00,0.0,meteohub,2013-07-12 02:03:00,
2013-07-11 22:08:00,81.9,79.7,30.05,NE,55,0.0,7.0,93,0.00,,,0.00,0.0,meteohub,2013-07-12 02:08:00,
2013-07-11 22:13:00,81.7,79.5,30.06,ENE,68,0.0,7.0,93,0.00,,,0.00,0.0,meteohub,2013-07-12 02:13:00,
2013-07-11 22:18:00,81.7,79.5,30.06,ENE,66,0.0,3.0,93,0.00,,,0.00,0.0,meteohub,2013-07-12 02:18:00,
2013-07-11 22:23:00,81.7,79.5,30.06,East,80,3.0,8.0,93,0.00,,,0.00,0.0,meteohub,2013-07-12 02:23:00,
2013-07-11 22:28:00,81.7,79.5,30.05,ENE,73,0.0,8.0,93,0.00,,,0.00,0.0,meteohub,2013-07-12 02:28:00,
2013-07-11 22:33:00,81.7,79.5,30.05,ENE,71,0.0,8.0,93,0.00,,,0.00,0.0,meteohub,2013-07-12 02:33:00,
2013-07-11 22:39:00,81.7,79.5,30.05,East,79,0.0,7.0,93,0.00,,,0.00,0.0,meteohub,2013-07-12 02:39:00,
2013-07-11 22:46:00,81.3,79.2,30.05,East,79,3.0,7.0,93,0.00,,,0.00,0.0,meteohub,2013-07-12 02:46:00,
2013-07-11 22:52:00,81.3,79.2,30.05,ENE,76,0.0,6.0,93,0.00,,,0.00,0.0,meteohub,2013-07-12 02:52:00,
2013-07-11 22:57:00,81.3,79.2,30.05,ENE,78,5.0,6.0,93,0.00,,,0.00,0.0,meteohub,2013-07-12 02:57:00,
2013-07-11 23:02:00,81.1,79.0,30.05,East,93,0.0,7.0,93,0.00,,,0.00,0.0,meteohub,2013-07-12 03:02:00,
2013-07-11 23:07:00,81.1,79.0,30.05,East,100,0.0,7.0,93,0.00,,,0.00,0.0,meteohub,2013-07-12 03:07:00,
2013-07-11 23:12:00,81.1,79.0,30.05,East,88,0.0,6.0,93,0.00,,,0.00,0.0,meteohub,2013-07-12 03:12:00,
2013-07-11 23:17:00,81.1,79.0,30.05,East,82,0.0,8.0,93,0.00,,,0.00,0.0,meteohub,2013-07-12 03:17:00,
2013-07-11 23:23:00,81.1,79.0,30.05,ENE,78,0.0,8.0,93,0.00,,,0.00,0.0,meteohub,2013-07-12 03:23:00,
2013-07-11 23:28:00,81.1,79.0,30.05,East,79,0.0,6.0,93,0.00,,,0.00,0.0,meteohub,2013-07-12 03:28:00,
2013-07-11 23:33:00,81.1,79.0,30.05,ENE,78,0.0,6.0,93,0.00,,,0.00,0.0,meteohub,2013-07-12 03:33:00,
2013-07-11 23:38:00,81.1,79.0,30.05,ENE,72,0.0,0.0,93,0.00,,,0.00,0.0,meteohub,2013-07-12 03:38:00,
2013-07-11 23:43:00,81.1,79.0,30.04,East,85,0.0,0.0,93,0.00,,,0.00,0.0,meteohub,2013-07-12 03:43:00,
2013-07-11 23:48:00,81.1,79.0,30.04,East,93,0.0,7.0,93,0.00,,,0.00,0.0,meteohub,2013-07-12 03:48:00,
2013-07-11 23:53:00,81.1,79.0,30.04,East,92,0.0,7.0,93,0.00,,,0.00,0.0,meteohub,2013-07-12 03:53:00,
2013-07-11 23:58:00,81.1,78.6,30.04,East,92,0.0,7.0,92,0.00,,,0.00,0.0,meteohub,2013-07-12 03:58:00,